Newark Heath, OH

12:49 AM EDT on May 23, 2017 (GMT -0400)
Newark Heath

Weather History for KVTA - October, 2012

Change the Weather History Date:

Friday, October 12, 2012

  Actual Average Record
Temperature  
Mean Temperature 46 °F -  
Max Temperature 59 °F 65 °F 84 °F (1938)
Min Temperature 34 °F 44 °F 23 °F (1964)
Degree Days  
Heating Degree Days 19    
Moisture  
Dew Point 33 °F    
Average Humidity 65    
Maximum Humidity 89    
Minimum Humidity 30    
Precipitation  
Precipitation 0.00 in - - ()
Sea Level Pressure  
Sea Level Pressure 30.32 in    
Wind  
Wind Speed 2 mph (North)    
Max Wind Speed 10 mph    
Max Gust Speed 16 mph    
Visibility 10 miles    
Events      
Averages and records for this station are not official NWS values.
T = Trace of Precipitation, MM = Missing Value Source: NWS Daily Summary

Daily Weather History Graph

Daily Weather History Graph

Search for Another Location

Airport or City:

Trip Planner

Search our weather history database for the weather conditions in past years. The results will help you decide how hot, cold, wet, or windy it might be!

Date:

Astronomy

Oct. 12, 2012 Rise Set
Actual Time 7:37 AM EDT 6:54 PM EDT
Civil Twilight 7:10 AM EDT 7:21 PM EDT
Nautical Twilight 6:39 AM EDT 7:52 PM EDT
Astronomical Twilight 6:07 AM EDT 8:23 PM EDT
Moon 4:19 AM EDT (10/12) 5:03 PM EDT (10/12)
Length of Visible Light 12h 10m
Length of Day
11h 16m
Waning Crescent, 11% of the Moon is Illuminated
Oct 12
Waning Crescent
Oct 15
New
Oct 21
First Quarter
Oct 29
Full
Nov 6
Last Quarter

Hourly Weather History & Observations

Time (EDT) Temp. Windchill Dew Point Humidity Pressure Visibility Wind Dir Wind Speed Gust Speed Precip Events Conditions
12:54 AM 39.0 °F - 36.0 °F 89% 30.20 in 10.0 mi Calm Calm - N/A   Clear
1:54 AM 37.9 °F - 34.0 °F 86% 30.21 in 10.0 mi Calm Calm - N/A   Clear
2:54 AM 39.0 °F - 36.0 °F 89% 30.18 in 10.0 mi Calm Calm - N/A   Clear
3:54 AM 39.9 °F - 36.0 °F 86% 30.19 in 10.0 mi Calm Calm - N/A   Clear
4:54 AM 43.0 °F - 37.9 °F 82% 30.20 in 10.0 mi Calm Calm - N/A   Mostly Cloudy
5:54 AM 42.1 °F - 37.9 °F 85% 30.22 in 10.0 mi Calm Calm - N/A   Partly Cloudy
6:54 AM 42.1 °F - 37.9 °F 85% 30.26 in 10.0 mi Calm Calm - N/A   Partly Cloudy
7:54 AM 46.9 °F - 37.9 °F 71% 30.30 in 10.0 mi Variable 6.9 mph - N/A   Overcast
8:54 AM 46.9 °F - 37.0 °F 68% 30.33 in 10.0 mi North 3.5 mph - N/A   Overcast
10:54 AM 50.0 °F - 36.0 °F 59% 30.39 in 10.0 mi Variable 6.9 mph - N/A   Mostly Cloudy
12:54 PM 55.0 °F - 32.0 °F 42% 30.39 in 10.0 mi Variable 5.8 mph - N/A   Clear
1:54 PM 55.9 °F - 30.0 °F 37% 30.38 in 10.0 mi NNE 8.1 mph 16.1 mph N/A   Clear
2:54 PM 57.9 °F - 28.9 °F 33% 30.36 in 10.0 mi North 8.1 mph - N/A   Clear
3:54 PM 57.9 °F - 27.0 °F 31% 30.35 in 10.0 mi North 10.4 mph - N/A   Clear
4:54 PM 57.0 °F - 26.1 °F 30% 30.35 in 10.0 mi Variable 5.8 mph - N/A   Clear
5:54 PM 57.0 °F - 26.1 °F 30% 30.35 in 10.0 mi NNE 3.5 mph - N/A   Clear
6:54 PM 53.1 °F - 26.1 °F 35% 30.37 in 10.0 mi Calm Calm - N/A   Clear
7:54 PM 44.1 °F - 30.9 °F 60% 30.39 in 10.0 mi Calm Calm - N/A   Clear
8:54 PM 42.1 °F 40.2 °F 30.9 °F 65% 30.40 in 10.0 mi NNE 3.5 mph - N/A   Clear
9:54 PM 36.0 °F - 30.9 °F 82% 30.40 in 10.0 mi Calm Calm - N/A   Clear
10:54 PM 35.1 °F - 32.0 °F 89% 30.41 in 10.0 mi Calm Calm - N/A   Clear
11:54 PM 34.0 °F - 30.0 °F 85% 30.40 in 10.0 mi Calm Calm - N/A   Clear